TimeCDT,TemperatureF,Dew PointF,Humidity,Sea Level PressureIn,VisibilityMPH,Wind Direction,Wind SpeedMPH,Gust SpeedMPH,PrecipitationIn,Events,Conditions,WindDirDegrees,DateUTC
12:54 AM,57.9,54.0,87,30.06,10.0,Calm,Calm,-,N/A,,Clear,0,2013-04-23 05:54:00
1:54 AM,57.9,54.0,87,30.06,10.0,Calm,Calm,-,N/A,,Clear,0,2013-04-23 06:54:00
2:11 AM,59.0,55.4,88,29.98,10.0,Calm,Calm,-,N/A,,Mostly Cloudy,0,2013-04-23 07:11:00
2:23 AM,60.8,57.2,88,29.97,10.0,Calm,Calm,-,N/A,,Overcast,0,2013-04-23 07:23:00
2:54 AM,61.0,57.0,87,30.04,10.0,Calm,Calm,-,N/A,,Overcast,0,2013-04-23 07:54:00
3:41 AM,60.8,57.2,88,29.96,10.0,Calm,Calm,-,N/A,,Mostly Cloudy,0,2013-04-23 08:41:00
3:54 AM,62.1,59.0,90,30.04,10.0,Calm,Calm,-,N/A,,Overcast,0,2013-04-23 08:54:00
4:54 AM,64.9,61.0,87,30.03,10.0,Variable,3.5,-,N/A,,Overcast,0,2013-04-23 09:54:00
5:54 AM,64.9,62.1,90,30.03,7.0,Variable,3.5,-,N/A,,Overcast,0,2013-04-23 10:54:00
6:54 AM,66.0,64.0,93,30.05,9.0,Variable,6.9,-,N/A,,Overcast,0,2013-04-23 11:54:00
7:54 AM,66.9,64.0,90,30.06,8.0,Variable,4.6,-,N/A,,Overcast,0,2013-04-23 12:54:00
8:21 AM,69.8,64.4,83,29.98,10.0,Variable,5.8,-,N/A,,Overcast,0,2013-04-23 13:21:00
8:52 AM,69.8,64.4,83,29.98,10.0,Variable,6.9,-,N/A,,Overcast,0,2013-04-23 13:52:00
8:54 AM,70.0,64.9,84,30.07,10.0,Variable,3.5,-,N/A,,Overcast,0,2013-04-23 13:54:00
9:54 AM,73.0,64.9,76,30.07,10.0,Variable,5.8,16.1,N/A,,Overcast,0,2013-04-23 14:54:00
10:29 AM,75.2,64.4,69,29.99,10.0,Variable,5.8,-,N/A,,Overcast,0,2013-04-23 15:29:00
10:54 AM,75.9,64.9,69,30.07,10.0,Variable,6.9,-,N/A,,Overcast,0,2013-04-23 15:54:00
11:18 AM,77.0,64.4,65,29.99,10.0,Variable,6.9,-,N/A,,Overcast,0,2013-04-23 16:18:00
11:54 AM,77.0,64.9,66,30.08,10.0,Variable,4.6,-,N/A,,Overcast,0,2013-04-23 16:54:00
12:54 PM,78.1,64.9,64,30.05,10.0,Variable,4.6,-,N/A,,Overcast,0,2013-04-23 17:54:00
1:54 PM,81.0,64.9,58,30.03,10.0,Variable,4.6,-,N/A,,Mostly Cloudy,0,2013-04-23 18:54:00
2:54 PM,84.0,64.0,51,30.00,10.0,Variable,5.8,-,N/A,,Mostly Cloudy,0,2013-04-23 19:54:00
3:54 PM,82.9,64.0,53,29.99,10.0,Variable,5.8,-,N/A,,Mostly Cloudy,0,2013-04-23 20:54:00
4:54 PM,82.0,62.1,51,29.97,10.0,SSW,8.1,-,N/A,,Scattered Clouds,210,2013-04-23 21:54:00
5:54 PM,80.1,63.0,56,29.97,10.0,SSW,8.1,-,N/A,,Scattered Clouds,200,2013-04-23 22:54:00
6:54 PM,78.1,64.0,62,29.98,10.0,Calm,Calm,-,N/A,,Partly Cloudy,0,2013-04-23 23:54:00
7:54 PM,75.9,64.9,69,29.99,10.0,Variable,3.5,-,N/A,,Mostly Cloudy,0,2013-04-24 00:54:00
9:54 PM,72.0,66.0,81,30.04,10.0,Calm,Calm,-,N/A,,Overcast,0,2013-04-24 02:54:00
10:54 PM,71.1,66.0,84,30.05,10.0,Calm,Calm,-,N/A,,Overcast,0,2013-04-24 03:54:00
11:54 PM,71.1,66.9,87,30.05,10.0,Calm,Calm,-,N/A,,Overcast,0,2013-04-24 04:54:00